Time,TemperatureF,DewpointF,PressureIn,WindDirection,WindDirectionDegrees,WindSpeedMPH,WindSpeedGustMPH,Humidity,HourlyPrecipIn,Conditions,Clouds,dailyrainin,SoftwareType,DateUTC
2013-11-15 00:01:00,73.2,68.1,30.26,North,0,0.0,0.0,84,0.00,CLR,SCT,0.00,WeatherDisplay:10.37,2013-11-15 05:01:00,
2013-11-15 00:02:00,73.2,68.1,30.26,North,0,0.0,0.0,84,0.00,CLR,SCT,0.00,WeatherDisplay:10.37,2013-11-15 05:02:00,
2013-11-15 00:07:00,73.2,67.7,30.26,North,0,0.0,0.0,83,0.00,CLR,SCT,0.00,WeatherDisplay:10.37,2013-11-15 05:07:00,
2013-11-15 00:12:00,73.2,67.7,30.26,North,0,0.0,0.0,83,0.00,CLR,SCT,0.00,WeatherDisplay:10.37,2013-11-15 05:12:00,
2013-11-15 00:17:00,73.2,67.7,30.26,North,0,0.0,0.0,83,0.00,CLR,SCT,0.00,WeatherDisplay:10.37,2013-11-15 05:17:00,
2013-11-15 00:23:00,73.2,67.7,30.26,North,0,0.0,0.0,83,0.00,CLR,SCT,0.00,WeatherDisplay:10.37,2013-11-15 05:23:00,
2013-11-15 00:28:00,73.2,67.7,30.26,North,0,0.0,0.0,83,0.00,CLR,SCT,0.00,WeatherDisplay:10.37,2013-11-15 05:28:00,
2013-11-15 00:33:00,73.2,67.7,30.26,North,0,0.0,0.0,83,0.00,CLR,SCT,0.00,WeatherDisplay:10.37,2013-11-15 05:33:00,
2013-11-15 00:38:00,73.2,67.7,30.26,North,0,0.0,0.0,83,0.00,CLR,SCT,0.00,WeatherDisplay:10.37,2013-11-15 05:38:00,
2013-11-15 00:43:00,73.0,67.6,30.26,North,0,0.0,0.0,83,0.00,CLR,SCT,0.00,WeatherDisplay:10.37,2013-11-15 05:43:00,
2013-11-15 00:48:00,73.2,67.7,30.26,North,0,0.0,0.0,83,0.00,CLR,SCT,0.00,WeatherDisplay:10.37,2013-11-15 05:48:00,
2013-11-15 00:53:00,73.0,67.6,30.26,North,0,0.0,0.0,83,0.00,CLR,SCT,0.00,WeatherDisplay:10.37,2013-11-15 05:53:00,
2013-11-15 00:58:00,73.2,67.7,30.26,North,0,0.0,0.0,83,0.00,CLR,SCT,0.00,WeatherDisplay:10.37,2013-11-15 05:58:00,
2013-11-15 01:03:00,73.2,67.7,30.26,North,0,0.0,0.0,83,0.00,CLR,SCT,0.00,WeatherDisplay:10.37,2013-11-15 06:03:00,
2013-11-15 01:08:00,73.2,67.7,30.26,North,0,0.0,0.0,83,0.00,CLR,SCT,0.00,WeatherDisplay:10.37,2013-11-15 06:08:00,
2013-11-15 01:13:00,73.2,67.7,30.26,North,0,0.0,0.0,83,0.00,CLR,SCT,0.00,WeatherDisplay:10.37,2013-11-15 06:13:00,
2013-11-15 01:18:00,73.2,67.4,30.26,North,0,0.0,0.0,82,0.00,CLR,SCT,0.00,WeatherDisplay:10.37,2013-11-15 06:18:00,
2013-11-15 01:23:00,73.2,67.4,30.26,North,0,0.0,0.0,82,0.00,CLR,SCT,0.00,WeatherDisplay:10.37,2013-11-15 06:23:00,
2013-11-15 01:28:00,73.2,67.4,30.26,North,0,0.0,0.0,82,0.00,CLR,SCT,0.00,WeatherDisplay:10.37,2013-11-15 06:28:00,
2013-11-15 01:33:00,73.4,66.9,30.26,North,0,0.0,0.0,80,0.00,CLR,SCT,0.00,WeatherDisplay:10.37,2013-11-15 06:33:00,
2013-11-15 01:38:00,73.4,66.9,30.26,North,0,0.0,0.0,80,0.00,CLR,SCT,0.00,WeatherDisplay:10.37,2013-11-15 06:38:00,
2013-11-15 01:43:00,73.4,66.5,30.26,North,0,0.0,0.0,79,0.00,CLR,SCT,0.00,WeatherDisplay:10.37,2013-11-15 06:43:00,
2013-11-15 01:48:00,73.4,66.5,30.26,North,0,0.0,0.0,79,0.00,CLR,SCT,0.00,WeatherDisplay:10.37,2013-11-15 06:48:00,
2013-11-15 01:53:00,73.6,66.7,30.26,North,0,0.0,0.0,79,0.00,CLR,SCT,0.00,WeatherDisplay:10.37,2013-11-15 06:53:00,
2013-11-15 01:58:00,73.6,66.7,30.26,North,0,0.0,0.0,79,0.00,CLR,SCT,0.00,WeatherDisplay:10.37,2013-11-15 06:58:00,
2013-11-15 02:03:00,73.6,66.7,30.26,North,0,0.0,0.0,79,0.00,CLR,SCT,0.00,WeatherDisplay:10.37,2013-11-15 07:03:00,
2013-11-15 02:08:00,73.8,66.5,30.26,North,0,0.0,0.0,78,0.00,CLR,SCT,0.00,WeatherDisplay:10.37,2013-11-15 07:08:00,
2013-11-15 02:13:00,73.8,66.5,30.26,North,0,0.0,0.0,78,0.00,CLR,SCT,0.00,WeatherDisplay:10.37,2013-11-15 07:13:00,
2013-11-15 02:18:00,73.8,66.5,30.26,North,0,0.0,0.0,78,0.00,CLR,SCT,0.00,WeatherDisplay:10.37,2013-11-15 07:18:00,
2013-11-15 02:23:00,73.9,66.6,30.26,North,0,0.0,0.0,78,0.00,CLR,SCT,0.00,WeatherDisplay:10.37,2013-11-15 07:23:00,
2013-11-15 02:28:00,73.9,66.6,30.26,North,0,0.0,0.0,78,0.00,CLR,SCT,0.00,WeatherDisplay:10.37,2013-11-15 07:28:00,
2013-11-15 02:33:00,73.9,66.3,30.26,North,0,0.0,0.0,77,0.00,CLR,SCT,0.00,WeatherDisplay:10.37,2013-11-15 07:33:00,
2013-11-15 02:38:00,73.9,66.3,30.26,North,0,0.0,0.0,77,0.00,CLR,SCT,0.00,WeatherDisplay:10.37,2013-11-15 07:38:00,
2013-11-15 02:43:00,73.9,66.3,30.26,North,0,0.0,0.0,77,0.00,CLR,SCT,0.00,WeatherDisplay:10.37,2013-11-15 07:43:00,
2013-11-15 02:48:00,73.9,66.3,30.26,North,0,0.0,0.0,77,0.00,CLR,SCT,0.00,WeatherDisplay:10.37,2013-11-15 07:48:00,
2013-11-15 02:53:00,73.9,66.3,30.26,North,0,0.0,0.0,77,0.00,CLR,SCT,0.00,WeatherDisplay:10.37,2013-11-15 07:53:00,
2013-11-15 02:58:00,73.9,66.3,30.26,North,0,0.0,0.0,77,0.00,CLR,SCT,0.00,WeatherDisplay:10.37,2013-11-15 07:58:00,
2013-11-15 03:03:00,73.9,66.3,30.26,North,0,0.0,0.0,77,0.00,CLR,SCT,0.00,WeatherDisplay:10.37,2013-11-15 08:03:00,
2013-11-15 03:08:00,73.9,66.3,30.26,North,0,0.0,0.0,77,0.00,CLR,SCT,0.00,WeatherDisplay:10.37,2013-11-15 08:08:00,
2013-11-15 03:13:00,73.9,66.3,30.26,North,0,0.0,0.0,77,0.00,CLR,SCT,0.00,WeatherDisplay:10.37,2013-11-15 08:13:00,
2013-11-15 03:18:00,73.9,65.5,30.26,North,0,0.0,0.0,75,0.00,CLR,SCT,0.00,WeatherDisplay:10.37,2013-11-15 08:18:00,
2013-11-15 03:23:00,73.9,65.1,30.26,North,0,0.0,0.0,74,0.00,CLR,SCT,0.00,WeatherDisplay:10.37,2013-11-15 08:23:00,
2013-11-15 03:28:00,73.9,64.3,30.26,North,0,0.0,0.0,72,0.00,CLR,SCT,0.00,WeatherDisplay:10.37,2013-11-15 08:28:00,
2013-11-15 03:33:00,73.9,63.9,30.26,North,0,0.0,0.0,71,0.00,CLR,SCT,0.00,WeatherDisplay:10.37,2013-11-15 08:33:00,
2013-11-15 03:38:00,74.1,62.9,30.26,North,0,0.0,0.0,68,0.00,CLR,SCT,0.00,WeatherDisplay:10.37,2013-11-15 08:38:00,
2013-11-15 03:43:00,74.3,61.8,30.26,North,0,0.0,0.0,65,0.00,CLR,SCT,0.00,WeatherDisplay:10.37,2013-11-15 08:43:00,
2013-11-15 03:48:00,74.3,61.8,30.26,North,0,0.0,0.0,65,0.00,CLR,SCT,0.00,WeatherDisplay:10.37,2013-11-15 08:48:00,
2013-11-15 03:53:00,74.3,61.3,30.26,North,0,0.0,0.0,64,0.00,CLR,SCT,0.00,WeatherDisplay:10.37,2013-11-15 08:53:00,
2013-11-15 03:58:00,74.3,60.9,30.26,North,0,0.0,0.0,63,0.00,CLR,SCT,0.00,WeatherDisplay:10.37,2013-11-15 08:58:00,
2013-11-15 04:03:00,74.3,60.4,30.26,North,0,0.0,0.0,62,0.00,CLR,SCT,0.00,WeatherDisplay:10.37,2013-11-15 09:03:00,
2013-11-15 04:08:00,74.3,58.1,30.26,North,0,0.0,0.0,57,0.00,CLR,SCT,0.00,WeatherDisplay:10.37,2013-11-15 09:08:00,
2013-11-15 04:13:00,74.3,57.1,30.26,North,0,0.0,0.0,55,0.00,CLR,SCT,0.00,WeatherDisplay:10.37,2013-11-15 09:13:00,
2013-11-15 04:18:00,74.3,56.1,30.26,North,0,0.0,0.0,53,0.00,CLR,SCT,0.00,WeatherDisplay:10.37,2013-11-15 09:18:00,
2013-11-15 04:23:00,74.3,55.5,30.26,North,0,0.0,0.0,52,0.00,CLR,SCT,0.00,WeatherDisplay:10.37,2013-11-15 09:23:00,
2013-11-15 04:28:00,74.5,55.7,30.26,North,0,0.0,0.0,52,0.00,CLR,SCT,0.00,WeatherDisplay:10.37,2013-11-15 09:28:00,
2013-11-15 04:33:00,74.3,55.5,30.26,North,0,0.0,0.0,52,0.00,CLR,SCT,0.00,WeatherDisplay:10.37,2013-11-15 09:33:00,
2013-11-15 04:38:00,74.3,55.5,30.26,North,0,0.0,0.0,52,0.00,CLR,SCT,0.00,WeatherDisplay:10.37,2013-11-15 09:38:00,
2013-11-15 04:43:00,74.3,55.5,30.26,North,0,0.0,0.0,52,0.00,CLR,SCT,0.00,WeatherDisplay:10.37,2013-11-15 09:43:00,
2013-11-15 04:48:00,74.3,55.0,30.26,North,0,0.0,0.0,51,0.00,CLR,SCT,0.00,WeatherDisplay:10.37,2013-11-15 09:48:00,
2013-11-15 04:53:00,74.3,55.0,30.26,North,0,0.0,0.0,51,0.00,CLR,SCT,0.00,WeatherDisplay:10.37,2013-11-15 09:53:00,
2013-11-15 04:58:00,74.3,54.5,30.26,North,0,0.0,0.0,50,0.00,CLR,SCT,0.00,WeatherDisplay:10.37,2013-11-15 09:58:00,
2013-11-15 05:03:00,74.1,54.3,30.26,North,0,0.0,0.0,50,0.00,CLR,SCT,0.00,WeatherDisplay:10.37,2013-11-15 10:03:00,
2013-11-15 05:08:00,74.3,54.5,30.26,North,0,0.0,0.0,50,0.00,CLR,SCT,0.00,WeatherDisplay:10.37,2013-11-15 10:08:00,
2013-11-15 05:13:00,74.3,54.5,30.26,North,0,0.0,0.0,50,0.00,CLR,SCT,0.00,WeatherDisplay:10.37,2013-11-15 10:13:00,
2013-11-15 05:18:00,74.3,53.9,30.26,North,0,0.0,0.0,49,0.00,CLR,SCT,0.00,WeatherDisplay:10.37,2013-11-15 10:18:00,
2013-11-15 05:23:00,74.5,54.1,30.26,North,0,0.0,0.0,49,0.00,CLR,SCT,0.00,WeatherDisplay:10.37,2013-11-15 10:23:00,
2013-11-15 05:28:00,74.3,54.5,30.26,North,0,0.0,0.0,50,0.00,CLR,SCT,0.00,WeatherDisplay:10.37,2013-11-15 10:28:00,
2013-11-15 05:33:00,74.3,54.5,30.26,North,0,0.0,0.0,50,0.00,CLR,SCT,0.00,WeatherDisplay:10.37,2013-11-15 10:33:00,
2013-11-15 05:38:00,74.3,53.9,30.26,North,0,0.0,0.0,49,0.00,CLR,SCT,0.00,WeatherDisplay:10.37,2013-11-15 10:38:00,
2013-11-15 05:43:00,74.3,53.9,30.26,North,0,0.0,0.0,49,0.00,CLR,SCT,0.00,WeatherDisplay:10.37,2013-11-15 10:43:00,
2013-11-15 05:48:00,74.3,53.3,30.26,North,0,0.0,0.0,48,0.00,CLR,SCT,0.00,WeatherDisplay:10.37,2013-11-15 10:48:00,
2013-11-15 05:53:00,74.3,53.3,30.26,North,0,0.0,0.0,48,0.00,CLR,SCT,0.00,WeatherDisplay:10.37,2013-11-15 10:53:00,
2013-11-15 05:59:00,74.3,53.3,30.26,North,0,0.0,0.0,48,0.00,CLR,SCT,0.00,WeatherDisplay:10.37,2013-11-15 10:59:00,
2013-11-15 06:04:00,74.3,53.3,30.26,North,0,0.0,0.0,48,0.00,CLR,SCT,0.00,WeatherDisplay:10.37,2013-11-15 11:04:00,
2013-11-15 06:09:00,74.3,53.3,30.26,North,0,0.0,0.0,48,0.00,CLR,SCT,0.00,WeatherDisplay:10.37,2013-11-15 11:09:00,
2013-11-15 06:14:00,74.3,52.8,30.26,North,0,0.0,0.0,47,0.00,CLR,SCT,0.00,WeatherDisplay:10.37,2013-11-15 11:14:00,
2013-11-15 06:19:00,74.5,52.9,30.26,North,0,0.0,0.0,47,0.00,CLR,SCT,0.00,WeatherDisplay:10.37,2013-11-15 11:19:00,
2013-11-15 06:24:00,74.5,52.9,30.26,North,0,0.0,0.0,47,0.00,CLR,SCT,0.00,WeatherDisplay:10.37,2013-11-15 11:24:00,
2013-11-15 06:29:00,74.7,53.1,30.26,North,0,0.0,0.0,47,0.00,CLR,SCT,0.00,WeatherDisplay:10.37,2013-11-15 11:29:00,
2013-11-15 06:34:00,74.7,53.1,30.26,North,0,0.0,0.0,47,0.00,CLR,SCT,0.00,WeatherDisplay:10.37,2013-11-15 11:34:00,
2013-11-15 06:39:00,74.7,53.1,30.26,North,0,0.0,0.0,47,0.00,CLR,SCT,0.00,WeatherDisplay:10.37,2013-11-15 11:39:00,
2013-11-15 06:44:00,74.7,53.1,30.26,North,0,0.0,0.0,47,0.00,CLR,SCT,0.00,WeatherDisplay:10.37,2013-11-15 11:44:00,
2013-11-15 06:49:00,74.7,53.1,30.26,North,0,0.0,0.0,47,0.00,CLR,SCT,0.00,WeatherDisplay:10.37,2013-11-15 11:49:00,
2013-11-15 06:54:00,74.7,52.5,30.26,North,0,0.0,0.0,46,0.00,CLR,SCT,0.00,WeatherDisplay:10.37,2013-11-15 11:54:00,
2013-11-15 06:59:00,74.8,52.7,30.26,North,0,0.0,0.0,46,0.00,CLR,SCT,0.00,WeatherDisplay:10.37,2013-11-15 11:59:00,
2013-11-15 07:04:00,74.8,52.7,30.26,North,0,0.0,0.0,46,0.00,CLR,SCT,0.00,WeatherDisplay:10.37,2013-11-15 12:04:00,
2013-11-15 07:09:00,74.8,52.7,30.26,North,0,0.0,0.0,46,0.00,CLR,SCT,0.00,WeatherDisplay:10.37,2013-11-15 12:09:00,
2013-11-15 07:14:00,75.0,52.8,30.26,North,0,0.0,0.0,46,0.00,CLR,SCT,0.00,WeatherDisplay:10.37,2013-11-15 12:14:00,
2013-11-15 07:19:00,75.0,52.8,30.26,North,0,0.0,0.0,46,0.00,CLR,SCT,0.00,WeatherDisplay:10.37,2013-11-15 12:19:00,
2013-11-15 07:24:00,75.2,52.4,30.26,North,0,0.0,0.0,45,0.00,CLR,SCT,0.00,WeatherDisplay:10.37,2013-11-15 12:24:00,
2013-11-15 07:29:00,75.2,52.4,30.26,North,0,0.0,0.0,45,0.00,CLR,SCT,0.00,WeatherDisplay:10.37,2013-11-15 12:29:00,
2013-11-15 07:34:00,75.2,52.4,30.26,North,0,0.0,0.0,45,0.00,CLR,SCT,0.00,WeatherDisplay:10.37,2013-11-15 12:34:00,
2013-11-15 07:39:00,75.4,52.6,30.26,North,0,0.0,0.0,45,0.00,CLR,SCT,0.00,WeatherDisplay:10.37,2013-11-15 12:39:00,
2013-11-15 07:44:00,75.6,52.1,30.26,North,0,0.0,0.0,44,0.00,CLR,SCT,0.00,WeatherDisplay:10.37,2013-11-15 12:44:00,
2013-11-15 07:49:00,75.7,52.3,30.26,North,0,0.0,0.0,44,0.00,CLR,SCT,0.00,WeatherDisplay:10.37,2013-11-15 12:49:00,
2013-11-15 07:54:00,75.9,52.4,30.26,North,0,0.0,0.0,44,0.00,CLR,SCT,0.00,WeatherDisplay:10.37,2013-11-15 12:54:00,
2013-11-15 07:59:00,76.1,52.0,30.26,North,0,0.0,0.0,43,0.00,CLR,SCT,0.00,WeatherDisplay:10.37,2013-11-15 12:59:00,
2013-11-15 08:04:00,76.5,52.3,30.26,North,0,0.0,0.0,43,0.00,CLR,SCT,0.00,WeatherDisplay:10.37,2013-11-15 13:04:00,
2013-11-15 08:09:00,76.6,52.5,30.26,North,0,0.0,0.0,43,0.00,CLR,SCT,0.00,WeatherDisplay:10.37,2013-11-15 13:09:00,
2013-11-15 08:14:00,77.0,52.8,30.26,North,0,0.0,0.0,43,0.00,CLR,SCT,0.00,WeatherDisplay:10.37,2013-11-15 13:14:00,
2013-11-15 08:19:00,77.4,53.1,30.26,North,0,0.0,0.0,43,0.00,CLR,SCT,0.00,WeatherDisplay:10.37,2013-11-15 13:19:00,
2013-11-15 08:24:00,77.5,52.6,30.26,North,0,0.0,0.0,42,0.00,CLR,SCT,0.00,WeatherDisplay:10.37,2013-11-15 13:24:00,
2013-11-15 08:29:00,77.7,52.8,30.26,North,0,0.0,0.0,42,0.00,CLR,SCT,0.00,WeatherDisplay:10.37,2013-11-15 13:29:00,
2013-11-15 08:34:00,77.9,52.3,30.26,North,0,0.0,0.0,41,0.00,CLR,SCT,0.00,WeatherDisplay:10.37,2013-11-15 13:34:00,
2013-11-15 08:39:00,78.1,53.1,30.26,North,0,0.0,0.0,42,0.00,CLR,SCT,0.00,WeatherDisplay:10.37,2013-11-15 13:39:00,
2013-11-15 08:44:00,78.4,52.8,30.26,North,0,0.0,0.0,41,0.00,CLR,SCT,0.00,WeatherDisplay:10.37,2013-11-15 13:44:00,
2013-11-15 08:49:00,78.8,52.4,30.26,North,0,0.0,0.0,40,0.00,CLR,SCT,0.00,WeatherDisplay:10.37,2013-11-15 13:49:00,
2013-11-15 08:54:00,79.3,52.2,30.26,North,0,0.0,0.0,39,0.00,CLR,SCT,0.00,WeatherDisplay:10.37,2013-11-15 13:54:00,
2013-11-15 08:59:00,79.3,51.5,30.26,North,0,0.0,0.0,38,0.00,CLR,SCT,0.00,WeatherDisplay:10.37,2013-11-15 13:59:00,
2013-11-15 09:04:00,79.5,51.7,30.26,North,0,0.0,0.0,38,0.00,CLR,SCT,0.00,WeatherDisplay:10.37,2013-11-15 14:04:00,
2013-11-15 09:09:00,79.7,52.5,30.26,North,0,0.0,0.0,39,0.00,CLR,SCT,0.00,WeatherDisplay:10.37,2013-11-15 14:09:00,
2013-11-15 09:14:00,79.7,52.5,30.26,North,0,0.0,0.0,39,0.00,CLR,SCT,0.00,WeatherDisplay:10.37,2013-11-15 14:14:00,
2013-11-15 09:19:00,79.5,51.7,30.26,North,0,0.0,0.0,38,0.00,CLR,SCT,0.00,WeatherDisplay:10.37,2013-11-15 14:19:00,
2013-11-15 09:24:00,79.5,51.7,30.26,North,0,0.0,0.0,38,0.00,CLR,SCT,0.00,WeatherDisplay:10.37,2013-11-15 14:24:00,
2013-11-15 09:29:00,79.5,51.7,30.26,North,0,0.0,0.0,38,0.00,CLR,SCT,0.00,WeatherDisplay:10.37,2013-11-15 14:29:00,
2013-11-15 09:34:00,79.5,51.7,30.26,North,0,0.0,0.0,38,0.00,CLR,SCT,0.00,WeatherDisplay:10.37,2013-11-15 14:34:00,
2013-11-15 09:39:00,79.5,52.4,30.26,North,0,0.0,0.0,39,0.00,CLR,SCT,0.00,WeatherDisplay:10.37,2013-11-15 14:39:00,
2013-11-15 09:44:00,79.7,52.5,30.26,North,0,0.0,0.0,39,0.00,CLR,SCT,0.00,WeatherDisplay:10.37,2013-11-15 14:44:00,
2013-11-15 09:49:00,79.9,52.7,30.26,North,0,0.0,0.0,39,0.00,CLR,SCT,0.00,WeatherDisplay:10.37,2013-11-15 14:49:00,
2013-11-15 09:54:00,80.1,52.2,30.26,North,0,0.0,0.0,38,0.00,CLR,SCT,0.00,WeatherDisplay:10.37,2013-11-15 14:54:00,
2013-11-15 09:59:00,80.1,52.2,30.26,North,0,0.0,0.0,38,0.00,CLR,SCT,0.00,WeatherDisplay:10.37,2013-11-15 14:59:00,
2013-11-15 10:04:00,80.2,52.3,30.26,North,0,0.0,0.0,38,0.00,CLR,SCT,0.00,WeatherDisplay:10.37,2013-11-15 15:04:00,
2013-11-15 10:09:00,80.2,52.3,30.26,North,0,0.0,0.0,38,0.00,CLR,SCT,0.00,WeatherDisplay:10.37,2013-11-15 15:09:00,
2013-11-15 10:14:00,80.4,51.8,30.26,North,0,0.0,0.0,37,0.00,CLR,SCT,0.00,WeatherDisplay:10.37,2013-11-15 15:14:00,
2013-11-15 10:19:00,80.6,51.9,30.26,North,0,0.0,0.0,37,0.00,CLR,SCT,0.00,WeatherDisplay:10.37,2013-11-15 15:19:00,
2013-11-15 10:24:00,80.6,52.6,30.26,North,0,0.0,0.0,38,0.00,CLR,SCT,0.00,WeatherDisplay:10.37,2013-11-15 15:24:00,
2013-11-15 10:29:00,80.6,51.9,30.26,North,0,0.0,0.0,37,0.00,CLR,SCT,0.00,WeatherDisplay:10.37,2013-11-15 15:29:00,
2013-11-15 10:34:00,80.8,52.1,30.26,North,0,0.0,0.0,37,0.00,CLR,SCT,0.00,WeatherDisplay:10.37,2013-11-15 15:34:00,
2013-11-15 10:39:00,81.0,52.2,30.26,North,0,0.0,0.0,37,0.00,CLR,SCT,0.00,WeatherDisplay:10.37,2013-11-15 15:39:00,
2013-11-15 10:44:00,81.1,53.1,30.26,North,0,0.0,0.0,38,0.00,CLR,SCT,0.00,WeatherDisplay:10.37,2013-11-15 15:44:00,
2013-11-15 10:49:00,81.3,53.3,30.26,North,0,0.0,0.0,38,0.00,CLR,SCT,0.00,WeatherDisplay:10.37,2013-11-15 15:49:00,
2013-11-15 10:54:00,81.5,52.7,30.26,North,0,0.0,0.0,37,0.00,CLR,SCT,0.00,WeatherDisplay:10.37,2013-11-15 15:54:00,
2013-11-15 10:59:00,81.7,52.9,30.26,North,0,0.0,0.0,37,0.00,CLR,SCT,0.00,WeatherDisplay:10.37,2013-11-15 15:59:00,
2013-11-15 11:04:00,81.7,52.1,30.26,North,0,0.0,0.0,36,0.00,CLR,SCT,0.00,WeatherDisplay:10.37,2013-11-15 16:04:00,
2013-11-15 11:09:00,81.9,52.3,30.26,North,0,0.0,0.0,36,0.00,CLR,SCT,0.00,WeatherDisplay:10.37,2013-11-15 16:09:00,
2013-11-15 11:14:00,81.9,52.3,30.26,North,0,0.0,0.0,36,0.00,CLR,SCT,0.00,WeatherDisplay:10.37,2013-11-15 16:14:00,
2013-11-15 11:19:00,81.7,52.1,30.26,North,0,0.0,0.0,36,0.00,CLR,SCT,0.00,WeatherDisplay:10.37,2013-11-15 16:19:00,
2013-11-15 11:24:00,81.7,52.1,30.26,North,0,0.0,0.0,36,0.00,CLR,SCT,0.00,WeatherDisplay:10.37,2013-11-15 16:24:00,
2013-11-15 11:29:00,81.7,52.1,30.26,North,0,0.0,0.0,36,0.00,CLR,SCT,0.00,WeatherDisplay:10.37,2013-11-15 16:29:00,
2013-11-15 11:34:00,81.9,52.3,30.26,North,0,0.0,0.0,36,0.00,CLR,SCT,0.00,WeatherDisplay:10.37,2013-11-15 16:34:00,
2013-11-15 11:39:00,81.9,53.0,30.26,North,0,0.0,0.0,37,0.00,CLR,SCT,0.00,WeatherDisplay:10.37,2013-11-15 16:39:00,
2013-11-15 11:44:00,81.9,52.3,30.26,North,0,0.0,0.0,36,0.00,CLR,SCT,0.00,WeatherDisplay:10.37,2013-11-15 16:44:00,
2013-11-15 11:49:00,81.9,53.0,30.26,North,0,0.0,0.0,37,0.00,CLR,SCT,0.00,WeatherDisplay:10.37,2013-11-15 16:49:00,
2013-11-15 11:54:00,82.4,53.5,30.26,North,0,0.0,0.0,37,0.00,CLR,SCT,0.00,WeatherDisplay:10.37,2013-11-15 16:54:00,
2013-11-15 11:59:00,82.6,52.9,30.26,North,0,0.0,0.0,36,0.00,CLR,SCT,0.00,WeatherDisplay:10.37,2013-11-15 16:59:00,
2013-11-15 12:04:00,82.2,53.4,30.26,North,0,0.0,0.0,37,0.00,CLR,SCT,0.00,WeatherDisplay:10.37,2013-11-15 17:04:00,
2013-11-15 12:09:00,82.0,53.9,30.26,North,0,0.0,0.0,38,0.00,CLR,SCT,0.00,WeatherDisplay:10.37,2013-11-15 17:09:00,
2013-11-15 12:14:00,81.8,53.7,30.26,North,0,0.0,0.0,38,0.00,CLR,SCT,0.00,WeatherDisplay:10.37,2013-11-15 17:14:00,
2013-11-15 12:19:00,81.5,53.4,30.26,North,0,0.0,0.0,38,0.00,CLR,SCT,0.00,WeatherDisplay:10.37,2013-11-15 17:19:00,
2013-11-15 12:24:00,81.5,53.4,30.26,North,0,0.0,0.0,38,0.00,CLR,SCT,0.00,WeatherDisplay:10.37,2013-11-15 17:24:00,
2013-11-15 12:29:00,81.5,53.4,30.26,North,0,0.0,0.0,38,0.00,CLR,SCT,0.00,WeatherDisplay:10.37,2013-11-15 17:29:00,
2013-11-15 12:34:00,81.3,54.0,30.26,North,0,0.0,0.0,39,0.00,CLR,SCT,0.00,WeatherDisplay:10.37,2013-11-15 17:34:00,
2013-11-15 12:40:00,81.1,53.8,30.26,North,0,0.0,0.0,39,0.00,CLR,SCT,0.00,WeatherDisplay:10.37,2013-11-15 17:40:00,
2013-11-15 12:45:00,81.3,54.0,30.26,North,0,0.0,0.0,39,0.00,CLR,SCT,0.00,WeatherDisplay:10.37,2013-11-15 17:45:00,
2013-11-15 12:50:00,81.5,54.2,30.26,North,0,0.0,0.0,39,0.00,CLR,SCT,0.00,WeatherDisplay:10.37,2013-11-15 17:50:00,
2013-11-15 12:55:00,82.0,54.6,30.26,North,0,0.0,0.0,39,0.00,CLR,SCT,0.00,WeatherDisplay:10.37,2013-11-15 17:55:00,
2013-11-15 13:00:00,82.6,55.1,30.26,North,0,0.0,0.0,39,0.00,CLR,SCT,0.00,WeatherDisplay:10.37,2013-11-15 18:00:00,
2013-11-15 13:05:00,83.1,54.9,30.26,North,0,0.0,0.0,38,0.00,CLR,SCT,0.00,WeatherDisplay:10.37,2013-11-15 18:05:00,
2013-11-15 13:10:00,83.3,55.0,30.26,North,0,0.0,0.0,38,0.00,CLR,SCT,0.00,WeatherDisplay:10.37,2013-11-15 18:10:00,
2013-11-15 13:15:00,83.5,54.5,30.26,North,0,0.0,0.0,37,0.00,CLR,SCT,0.00,WeatherDisplay:10.37,2013-11-15 18:15:00,
2013-11-15 13:20:00,83.1,54.9,30.26,North,0,0.0,0.0,38,0.00,CLR,SCT,0.00,WeatherDisplay:10.37,2013-11-15 18:20:00,
2013-11-15 13:25:00,82.8,55.3,30.26,North,0,0.0,0.0,39,0.00,CLR,SCT,0.00,WeatherDisplay:10.37,2013-11-15 18:25:00,
2013-11-15 13:30:00,82.6,55.1,30.26,North,0,0.0,0.0,39,0.00,CLR,SCT,0.00,WeatherDisplay:10.37,2013-11-15 18:30:00,
2013-11-15 13:35:00,82.6,55.1,30.26,North,0,0.0,0.0,39,0.00,CLR,SCT,0.00,WeatherDisplay:10.37,2013-11-15 18:35:00,
2013-11-15 13:40:00,82.4,55.0,30.26,North,0,0.0,0.0,39,0.00,CLR,SCT,0.00,WeatherDisplay:10.37,2013-11-15 18:40:00,
2013-11-15 13:45:00,82.0,54.6,30.26,North,0,0.0,0.0,39,0.00,CLR,SCT,0.00,WeatherDisplay:10.37,2013-11-15 18:45:00,
2013-11-15 13:50:00,81.7,55.0,30.26,North,0,0.0,0.0,40,0.00,CLR,SCT,0.00,WeatherDisplay:10.37,2013-11-15 18:50:00,
2013-11-15 13:55:00,81.3,54.7,30.26,North,0,0.0,0.0,40,0.00,CLR,SCT,0.00,WeatherDisplay:10.37,2013-11-15 18:55:00,
2013-11-15 14:00:00,81.5,54.8,30.26,North,0,0.0,0.0,40,0.00,CLR,SCT,0.00,WeatherDisplay:10.37,2013-11-15 19:00:00,
2013-11-15 14:05:00,81.5,54.8,30.26,North,0,0.0,0.0,40,0.00,CLR,SCT,0.00,WeatherDisplay:10.37,2013-11-15 19:05:00,
2013-11-15 14:10:00,81.9,55.2,30.26,North,0,0.0,0.0,40,0.00,CLR,SCT,0.00,WeatherDisplay:10.37,2013-11-15 19:10:00,
2013-11-15 14:15:00,81.9,55.2,30.26,North,0,0.0,0.0,40,0.00,CLR,SCT,0.00,WeatherDisplay:10.37,2013-11-15 19:15:00,
2013-11-15 14:20:00,82.4,55.7,30.26,North,0,0.0,0.0,40,0.00,CLR,SCT,0.00,WeatherDisplay:10.37,2013-11-15 19:20:00,
2013-11-15 14:25:00,82.6,55.8,30.26,North,0,0.0,0.0,40,0.00,CLR,SCT,0.00,WeatherDisplay:10.37,2013-11-15 19:25:00,
2013-11-15 14:30:00,82.4,55.7,30.26,North,0,0.0,0.0,40,0.00,CLR,SCT,0.00,WeatherDisplay:10.37,2013-11-15 19:30:00,
2013-11-15 14:35:00,81.5,54.8,30.26,North,0,0.0,0.0,40,0.00,CLR,SCT,0.00,WeatherDisplay:10.37,2013-11-15 19:35:00,
2013-11-15 14:40:00,81.1,55.9,30.26,North,0,0.0,0.0,42,0.00,CLR,SCT,0.00,WeatherDisplay:10.37,2013-11-15 19:40:00,
2013-11-15 14:45:00,80.4,56.5,30.26,North,0,0.0,0.0,44,0.00,CLR,SCT,0.00,WeatherDisplay:10.37,2013-11-15 19:45:00,
2013-11-15 14:50:00,79.7,57.1,30.26,North,0,0.0,0.0,46,0.00,CLR,SCT,0.00,WeatherDisplay:10.37,2013-11-15 19:50:00,
2013-11-15 14:55:00,79.5,57.5,30.26,North,0,0.0,0.0,47,0.00,CLR,SCT,0.00,WeatherDisplay:10.37,2013-11-15 19:55:00,
2013-11-15 15:00:00,79.0,58.2,30.26,North,0,0.0,0.0,49,0.00,CLR,SCT,0.00,WeatherDisplay:10.37,2013-11-15 20:00:00,
2013-11-15 15:05:00,79.0,58.2,30.26,North,0,0.0,0.0,49,0.00,CLR,SCT,0.00,WeatherDisplay:10.37,2013-11-15 20:05:00,
2013-11-15 15:10:00,78.6,59.0,30.26,North,0,0.0,0.0,51,0.00,CLR,SCT,0.00,WeatherDisplay:10.37,2013-11-15 20:10:00,
2013-11-15 15:15:00,78.6,59.0,30.26,North,0,0.0,0.0,51,0.00,CLR,SCT,0.00,WeatherDisplay:10.37,2013-11-15 20:15:00,
2013-11-15 15:20:00,78.3,58.6,30.26,North,0,0.0,0.0,51,0.00,CLR,SCT,0.00,WeatherDisplay:10.37,2013-11-15 20:20:00,
2013-11-15 15:25:00,78.3,59.2,30.26,North,0,0.0,0.0,52,0.00,CLR,SCT,0.00,WeatherDisplay:10.37,2013-11-15 20:25:00,
2013-11-15 15:30:00,78.1,59.0,30.26,North,0,0.0,0.0,52,0.00,CLR,SCT,0.00,WeatherDisplay:10.37,2013-11-15 20:30:00,
2013-11-15 15:35:00,78.3,59.2,30.26,North,0,0.0,0.0,52,0.00,CLR,SCT,0.00,WeatherDisplay:10.37,2013-11-15 20:35:00,
2013-11-15 15:40:00,78.3,59.2,30.26,North,0,0.0,0.0,52,0.00,CLR,SCT,0.00,WeatherDisplay:10.37,2013-11-15 20:40:00,
2013-11-15 15:45:00,77.5,59.6,30.26,North,0,0.0,0.0,54,0.00,CLR,SCT,0.00,WeatherDisplay:10.37,2013-11-15 20:45:00,
2013-11-15 15:50:00,76.6,60.8,30.26,North,0,0.0,0.0,58,0.00,CLR,SCT,0.00,WeatherDisplay:10.37,2013-11-15 20:50:00,
2013-11-15 15:55:00,76.5,60.6,30.26,North,0,0.0,0.0,58,0.00,CLR,SCT,0.00,WeatherDisplay:10.37,2013-11-15 20:55:00,
2013-11-15 16:00:00,76.5,60.6,30.26,North,0,0.0,0.0,58,0.00,CLR,SCT,0.00,WeatherDisplay:10.37,2013-11-15 21:00:00,
2013-11-15 16:05:00,76.5,60.6,30.26,North,0,0.0,0.0,58,0.00,CLR,SCT,0.00,WeatherDisplay:10.37,2013-11-15 21:05:00,
2013-11-15 16:10:00,76.5,61.1,30.26,North,0,0.0,0.0,59,0.00,CLR,SCT,0.00,WeatherDisplay:10.37,2013-11-15 21:10:00,
2013-11-15 16:15:00,76.3,60.4,30.26,North,0,0.0,0.0,58,0.00,CLR,SCT,0.00,WeatherDisplay:10.37,2013-11-15 21:15:00,
2013-11-15 16:20:00,76.1,60.2,30.26,North,0,0.0,0.0,58,0.00,CLR,SCT,0.00,WeatherDisplay:10.37,2013-11-15 21:20:00,
2013-11-15 16:25:00,76.1,60.2,30.26,North,0,0.0,0.0,58,0.00,CLR,SCT,0.00,WeatherDisplay:10.37,2013-11-15 21:25:00,
2013-11-15 16:30:00,76.1,60.7,30.26,North,0,0.0,0.0,59,0.00,CLR,SCT,0.00,WeatherDisplay:10.37,2013-11-15 21:30:00,
2013-11-15 16:35:00,76.1,60.7,30.26,North,0,0.0,0.0,59,0.00,CLR,SCT,0.00,WeatherDisplay:10.37,2013-11-15 21:35:00,
2013-11-15 16:40:00,75.9,60.6,30.26,North,0,0.0,0.0,59,0.00,CLR,SCT,0.00,WeatherDisplay:10.37,2013-11-15 21:40:00,
2013-11-15 16:45:00,75.9,60.6,30.26,North,0,0.0,0.0,59,0.00,CLR,SCT,0.00,WeatherDisplay:10.37,2013-11-15 21:45:00,
2013-11-15 16:50:00,75.9,60.6,30.26,North,0,0.0,0.0,59,0.00,CLR,SCT,0.00,WeatherDisplay:10.37,2013-11-15 21:50:00,
2013-11-15 16:55:00,75.9,60.6,30.26,North,0,0.0,0.0,59,0.00,CLR,SCT,0.00,WeatherDisplay:10.37,2013-11-15 21:55:00,
2013-11-15 17:00:00,75.9,60.1,30.26,North,0,0.0,0.0,58,0.00,CLR,SCT,0.00,WeatherDisplay:10.37,2013-11-15 22:00:00,
2013-11-15 17:05:00,75.9,60.1,30.26,North,0,0.0,0.0,58,0.00,CLR,SCT,0.00,WeatherDisplay:10.37,2013-11-15 22:05:00,
2013-11-15 17:10:00,75.9,60.1,30.26,North,0,0.0,0.0,58,0.00,CLR,SCT,0.00,WeatherDisplay:10.37,2013-11-15 22:10:00,
2013-11-15 17:15:00,76.1,59.8,30.26,North,0,0.0,0.0,57,0.00,CLR,SCT,0.00,WeatherDisplay:10.37,2013-11-15 22:15:00,
2013-11-15 17:20:00,76.1,59.8,30.26,North,0,0.0,0.0,57,0.00,CLR,SCT,0.00,WeatherDisplay:10.37,2013-11-15 22:20:00,
2013-11-15 17:25:00,75.9,59.1,30.26,North,0,0.0,0.0,56,0.00,CLR,SCT,0.00,WeatherDisplay:10.37,2013-11-15 22:25:00,
2013-11-15 17:30:00,75.9,59.6,30.26,North,0,0.0,0.0,57,0.00,CLR,SCT,0.00,WeatherDisplay:10.37,2013-11-15 22:30:00,
2013-11-15 17:35:00,76.1,59.3,30.26,North,0,0.0,0.0,56,0.00,CLR,SCT,0.00,WeatherDisplay:10.37,2013-11-15 22:35:00,
2013-11-15 17:40:00,75.9,59.6,30.26,North,0,0.0,0.0,57,0.00,CLR,SCT,0.00,WeatherDisplay:10.37,2013-11-15 22:40:00,
2013-11-15 17:45:00,75.9,59.6,30.26,North,0,0.0,0.0,57,0.00,CLR,SCT,0.00,WeatherDisplay:10.37,2013-11-15 22:45:00,
2013-11-15 17:50:00,75.9,60.1,30.26,North,0,0.0,0.0,58,0.00,CLR,SCT,0.00,WeatherDisplay:10.37,2013-11-15 22:50:00,
2013-11-15 17:55:00,75.6,60.2,30.26,North,0,0.0,0.0,59,0.00,CLR,SCT,0.00,WeatherDisplay:10.37,2013-11-15 22:55:00,
2013-11-15 18:00:00,75.6,60.2,30.26,North,0,0.0,0.0,59,0.00,CLR,SCT,0.00,WeatherDisplay:10.37,2013-11-15 23:00:00,
2013-11-15 18:05:00,75.4,60.1,30.26,North,0,0.0,0.0,59,0.00,CLR,SCT,0.00,WeatherDisplay:10.37,2013-11-15 23:05:00,
2013-11-15 18:10:00,75.4,60.1,30.26,North,0,0.0,0.0,59,0.00,CLR,SCT,0.00,WeatherDisplay:10.37,2013-11-15 23:10:00,
2013-11-15 18:15:00,75.4,60.1,30.26,North,0,0.0,0.0,59,0.00,CLR,SCT,0.00,WeatherDisplay:10.37,2013-11-15 23:15:00,
2013-11-15 18:20:00,75.4,60.5,30.26,North,0,0.0,0.0,60,0.00,CLR,SCT,0.00,WeatherDisplay:10.37,2013-11-15 23:20:00,
2013-11-15 18:25:00,75.4,60.1,30.26,North,0,0.0,0.0,59,0.00,CLR,SCT,0.00,WeatherDisplay:10.37,2013-11-15 23:25:00,
2013-11-15 18:31:00,75.6,60.2,30.26,North,0,0.0,0.0,59,0.00,CLR,SCT,0.00,WeatherDisplay:10.37,2013-11-15 23:31:00,
2013-11-15 18:36:00,75.6,59.7,30.26,North,0,0.0,0.0,58,0.00,CLR,SCT,0.00,WeatherDisplay:10.37,2013-11-15 23:36:00,
2013-11-15 18:41:00,75.6,59.3,30.26,North,0,0.0,0.0,57,0.00,CLR,SCT,0.00,WeatherDisplay:10.37,2013-11-15 23:41:00,
2013-11-15 18:46:00,75.6,58.8,30.26,North,0,0.0,0.0,56,0.00,CLR,SCT,0.00,WeatherDisplay:10.37,2013-11-15 23:46:00,
2013-11-15 18:51:00,75.7,58.9,30.26,North,0,0.0,0.0,56,0.00,CLR,SCT,0.00,WeatherDisplay:10.37,2013-11-15 23:51:00,
2013-11-15 18:56:00,75.7,58.4,30.26,North,0,0.0,0.0,55,0.00,CLR,SCT,0.00,WeatherDisplay:10.37,2013-11-15 23:56:00,
2013-11-15 19:01:00,75.9,58.6,30.26,North,0,0.0,0.0,55,0.00,CLR,SCT,0.00,WeatherDisplay:10.37,2013-11-16 00:01:00,
2013-11-15 19:06:00,76.1,58.2,30.26,North,0,0.0,0.0,54,0.00,CLR,SCT,0.00,WeatherDisplay:10.37,2013-11-16 00:06:00,
2013-11-15 19:11:00,76.1,58.2,30.26,North,0,0.0,0.0,54,0.00,CLR,SCT,0.00,WeatherDisplay:10.37,2013-11-16 00:11:00,
2013-11-15 19:16:00,76.1,59.3,30.26,North,0,0.0,0.0,56,0.00,CLR,SCT,0.00,WeatherDisplay:10.37,2013-11-16 00:16:00,
2013-11-15 19:21:00,75.7,60.4,30.26,North,0,0.0,0.0,59,0.00,CLR,SCT,0.00,WeatherDisplay:10.37,2013-11-16 00:21:00,
2013-11-15 19:26:00,75.7,59.9,30.26,North,0,0.0,0.0,58,0.00,CLR,SCT,0.00,WeatherDisplay:10.37,2013-11-16 00:26:00,
2013-11-15 19:31:00,75.7,59.9,30.26,North,0,0.0,0.0,58,0.00,CLR,SCT,0.00,WeatherDisplay:10.37,2013-11-16 00:31:00,
2013-11-15 19:36:00,75.6,59.7,30.26,North,0,0.0,0.0,58,0.00,CLR,SCT,0.00,WeatherDisplay:10.37,2013-11-16 00:36:00,
2013-11-15 19:41:00,75.4,59.6,30.26,North,0,0.0,0.0,58,0.00,CLR,SCT,0.00,WeatherDisplay:10.37,2013-11-16 00:41:00,
2013-11-15 19:46:00,75.4,59.1,30.26,North,0,0.0,0.0,57,0.00,CLR,SCT,0.00,WeatherDisplay:10.37,2013-11-16 00:46:00,
2013-11-15 19:51:00,75.4,58.6,30.26,North,0,0.0,0.0,56,0.00,CLR,SCT,0.00,WeatherDisplay:10.37,2013-11-16 00:51:00,
2013-11-15 19:56:00,75.4,59.1,30.26,North,0,0.0,0.0,57,0.00,CLR,SCT,0.00,WeatherDisplay:10.37,2013-11-16 00:56:00,
2013-11-15 20:01:00,75.2,59.9,30.26,North,0,0.0,0.0,59,0.00,CLR,SCT,0.00,WeatherDisplay:10.37,2013-11-16 01:01:00,
2013-11-15 20:06:00,75.2,59.9,30.26,North,0,0.0,0.0,59,0.00,CLR,SCT,0.00,WeatherDisplay:10.37,2013-11-16 01:06:00,
2013-11-15 20:11:00,75.2,59.9,30.26,North,0,0.0,0.0,59,0.00,CLR,SCT,0.00,WeatherDisplay:10.37,2013-11-16 01:11:00,
2013-11-15 20:16:00,75.6,59.3,30.26,North,0,0.0,0.0,57,0.00,CLR,SCT,0.00,WeatherDisplay:10.37,2013-11-16 01:16:00,
2013-11-15 20:21:00,75.7,58.4,30.26,North,0,0.0,0.0,55,0.00,CLR,SCT,0.00,WeatherDisplay:10.37,2013-11-16 01:21:00,
2013-11-15 20:26:00,75.9,58.1,30.26,North,0,0.0,0.0,54,0.00,CLR,SCT,0.00,WeatherDisplay:10.37,2013-11-16 01:26:00,
2013-11-15 20:31:00,76.1,57.7,30.26,North,0,0.0,0.0,53,0.00,CLR,SCT,0.00,WeatherDisplay:10.37,2013-11-16 01:31:00,
2013-11-15 20:36:00,76.3,57.9,30.26,North,0,0.0,0.0,53,0.00,CLR,SCT,0.00,WeatherDisplay:10.37,2013-11-16 01:36:00,
2013-11-15 20:41:00,76.6,57.7,30.26,North,0,0.0,0.0,52,0.00,CLR,SCT,0.00,WeatherDisplay:10.37,2013-11-16 01:41:00,
2013-11-15 20:46:00,76.6,57.2,30.26,North,0,0.0,0.0,51,0.00,CLR,SCT,0.00,WeatherDisplay:10.37,2013-11-16 01:46:00,
2013-11-15 20:51:00,76.6,56.6,30.26,North,0,0.0,0.0,50,0.00,CLR,SCT,0.00,WeatherDisplay:10.37,2013-11-16 01:51:00,
2013-11-15 20:56:00,77.0,56.9,30.26,North,0,0.0,0.0,50,0.00,CLR,SCT,0.00,WeatherDisplay:10.37,2013-11-16 01:56:00,
2013-11-15 21:01:00,77.2,56.5,30.26,North,0,0.0,0.0,49,0.00,CLR,SCT,0.00,WeatherDisplay:10.37,2013-11-16 02:01:00,
2013-11-15 21:06:00,77.2,56.5,30.26,North,0,0.0,0.0,49,0.00,CLR,SCT,0.00,WeatherDisplay:10.37,2013-11-16 02:06:00,
2013-11-15 21:11:00,77.4,56.7,30.26,North,0,0.0,0.0,49,0.00,CLR,SCT,0.00,WeatherDisplay:10.37,2013-11-16 02:11:00,
2013-11-15 21:16:00,77.4,56.7,30.26,North,0,0.0,0.0,49,0.00,CLR,SCT,0.00,WeatherDisplay:10.37,2013-11-16 02:16:00,
2013-11-15 21:21:00,77.4,56.1,30.26,North,0,0.0,0.0,48,0.00,CLR,SCT,0.00,WeatherDisplay:10.37,2013-11-16 02:21:00,
2013-11-15 21:26:00,77.5,56.3,30.26,North,0,0.0,0.0,48,0.00,CLR,SCT,0.00,WeatherDisplay:10.37,2013-11-16 02:26:00,
2013-11-15 21:31:00,77.5,56.3,30.26,North,0,0.0,0.0,48,0.00,CLR,SCT,0.00,WeatherDisplay:10.37,2013-11-16 02:31:00,
2013-11-15 21:36:00,77.5,56.3,30.26,North,0,0.0,0.0,48,0.00,CLR,SCT,0.00,WeatherDisplay:10.37,2013-11-16 02:36:00,
2013-11-15 21:41:00,77.5,56.3,30.26,North,0,0.0,0.0,48,0.00,CLR,SCT,0.00,WeatherDisplay:10.37,2013-11-16 02:41:00,
2013-11-15 21:46:00,77.4,56.1,30.26,North,0,0.0,0.0,48,0.00,CLR,SCT,0.00,WeatherDisplay:10.37,2013-11-16 02:46:00,
2013-11-15 21:51:00,77.4,56.1,30.26,North,0,0.0,0.0,48,0.00,CLR,SCT,0.00,WeatherDisplay:10.37,2013-11-16 02:51:00,
2013-11-15 21:56:00,77.4,56.1,30.26,North,0,0.0,0.0,48,0.00,CLR,SCT,0.00,WeatherDisplay:10.37,2013-11-16 02:56:00,
2013-11-15 22:01:00,77.4,56.1,30.26,North,0,0.0,0.0,48,0.00,CLR,SCT,0.00,WeatherDisplay:10.37,2013-11-16 03:01:00,
2013-11-15 22:06:00,77.4,56.1,30.26,North,0,0.0,0.0,48,0.00,CLR,SCT,0.00,WeatherDisplay:10.37,2013-11-16 03:06:00,
2013-11-15 22:11:00,77.4,56.1,30.26,North,0,0.0,0.0,48,0.00,CLR,SCT,0.00,WeatherDisplay:10.37,2013-11-16 03:11:00,
2013-11-15 22:16:00,77.4,56.1,30.26,North,0,0.0,0.0,48,0.00,CLR,SCT,0.00,WeatherDisplay:10.37,2013-11-16 03:16:00,
2013-11-15 22:21:00,77.4,56.1,30.26,North,0,0.0,0.0,48,0.00,CLR,SCT,0.00,WeatherDisplay:10.37,2013-11-16 03:21:00,
2013-11-15 22:26:00,77.4,56.1,30.26,North,0,0.0,0.0,48,0.00,CLR,SCT,0.00,WeatherDisplay:10.37,2013-11-16 03:26:00,
2013-11-15 22:31:00,77.4,56.1,30.26,North,0,0.0,0.0,48,0.00,CLR,SCT,0.00,WeatherDisplay:10.37,2013-11-16 03:31:00,
2013-11-15 22:36:00,77.4,56.1,30.26,North,0,0.0,0.0,48,0.00,CLR,SCT,0.00,WeatherDisplay:10.37,2013-11-16 03:36:00,
2013-11-15 22:41:00,77.4,56.1,30.26,North,0,0.0,0.0,48,0.00,CLR,SCT,0.00,WeatherDisplay:10.37,2013-11-16 03:41:00,
2013-11-15 22:46:00,77.4,56.1,30.26,North,0,0.0,0.0,48,0.00,CLR,SCT,0.00,WeatherDisplay:10.37,2013-11-16 03:46:00,
2013-11-15 22:51:00,77.4,56.1,30.26,North,0,0.0,0.0,48,0.00,CLR,SCT,0.00,WeatherDisplay:10.37,2013-11-16 03:51:00,
2013-11-15 22:56:00,77.2,56.0,30.26,North,0,0.0,0.0,48,0.00,CLR,SCT,0.00,WeatherDisplay:10.37,2013-11-16 03:56:00,
2013-11-15 23:01:00,77.4,56.1,30.26,North,0,0.0,0.0,48,0.00,CLR,SCT,0.00,WeatherDisplay:10.37,2013-11-16 04:01:00,
2013-11-15 23:07:00,77.2,56.0,30.26,North,0,0.0,0.0,48,0.00,CLR,SCT,0.00,WeatherDisplay:10.37,2013-11-16 04:07:00,
2013-11-15 23:12:00,77.4,56.7,30.26,North,0,0.0,0.0,49,0.00,CLR,SCT,0.00,WeatherDisplay:10.37,2013-11-16 04:12:00,
2013-11-15 23:16:00,77.4,56.7,30.26,North,0,0.0,0.0,49,0.00,CLR,SCT,0.00,WeatherDisplay:10.37,2013-11-16 04:16:00,
2013-11-15 23:22:00,77.4,56.7,30.26,North,0,0.0,0.0,49,0.00,CLR,SCT,0.00,WeatherDisplay:10.37,2013-11-16 04:22:00,
2013-11-15 23:27:00,77.4,56.7,30.26,North,0,0.0,0.0,49,0.00,CLR,SCT,0.00,WeatherDisplay:10.37,2013-11-16 04:27:00,
2013-11-15 23:32:00,77.4,56.7,30.26,North,0,0.0,0.0,49,0.00,CLR,SCT,0.00,WeatherDisplay:10.37,2013-11-16 04:32:00,
2013-11-15 23:37:00,77.4,56.7,30.26,North,0,0.0,0.0,49,0.00,CLR,SCT,0.00,WeatherDisplay:10.37,2013-11-16 04:37:00,
2013-11-15 23:42:00,77.4,56.7,30.26,North,0,0.0,0.0,49,0.00,CLR,SCT,0.00,WeatherDisplay:10.37,2013-11-16 04:42:00,
2013-11-15 23:47:00,77.4,56.7,30.26,North,0,0.0,0.0,49,0.00,CLR,SCT,0.00,WeatherDisplay:10.37,2013-11-16 04:47:00,
2013-11-15 23:52:00,77.4,57.3,30.26,North,0,0.0,0.0,50,0.00,CLR,SCT,0.00,WeatherDisplay:10.37,2013-11-16 04:52:00,
2013-11-15 23:57:00,77.4,57.8,30.26,North,0,0.0,0.0,51,0.00,CLR,SCT,0.00,WeatherDisplay:10.37,2013-11-16 04:57:00,